sat.trackr.live / text

‹ back to catalog

STARLINK-32334

NORAD 62023 · 2024-213R

PAYLOAD ACTIVE UNKNOWN

§ Identity

Operator
Country
US
Launch date
2024-11-18
Launch site
AFWTR
Launch vehicle
Mass (kg)
RCS (m²)

Purposes: comms

External: N2YO · Heavens-Above · Gunter

§ Orbital elements

Epoch: 2026-05-25T01:45:46.996704Z

Period
94.11 min
Inclination
53.1589°
Eccentricity
0.0001109
Mean motion
15.30201113 rev/d
Perigee alt
474.5 km
Apogee alt
476.0 km
Semi-major
6,853.3 km
B*
2.7953e-4
RAAN
173.0339°
Arg perigee
73.3165°
Mean anomaly
286.7957°
Rev number
8,485

§ Raw data

STARLINK-323341 62023U 24213R   26145.07346061  .00007929  00000+0  27953-3 0  99952 62023  53.1589 173.0339 0001109  73.3165 286.7957 15.30201113 84854

JSON: /api/v1/satellites/62023 · /tle

For live sub-satellite position, see the globe view (requires WebGL).

§ Visibility from observer

Set your observer location to see the next 7 days of passes ≥ 10°. The values pass through the URL so the page stays shareable.

No JS? Fill the form by hand. The geolocation button needs JavaScript.